CZ-2C R/B (43521 NORAD) Tracking and Keplerian Element Data

This shows tracking and keplerian element data for the satellite.

Feedback or suggestion? Click here.




ElementValue
Catalog43521
NameCZ-2C R/B
Epoch Orbit19658
Epoch Day16.00102846
Epoch Year2022
RAAN218.3312
Inclination35.1517
Eccentricity0.0080501
Argument of Perigee175.8875
Mean Anonmoly184.2514
Mean Motion15.12107154
Decay Rate3.248E-05
L11 43521U 18054D 22016.00102846 .00003248 00000+0 17245-3 0 9993
L22 43521 35.1517 218.3312 0080501 175.8875 184.2514 15.12107154196585

Live tracking and technical data element details for CZ-2C R/B (NORAD 43521). CZ-2C R/B can be tracked NOW for your location showing map with azimuth and elevation plus other details from your city location.

Track the satellite on the map from your city or location and see movement details for azimuth, elevation, latitude, longitude, range, height, and movement on the map or in text.







IsCatalogInMostPopularTable: catalog: 43521, numindb: 474
Update: records affected: 1



GetName: 43521 CZ-2C R/B

Hit Count: updated at: Mon, 17 Jan 2022 01:31:29 GMT